GFSSW_sfc_wetblb_021.txt.gz
Wetbulb
58.59 58.59 58.77 58.95 59.00 59.41 59.71 59.89 59.72 59.69 60.07 60.40 60.63 60.68 60.69 61.05 60.52 52.69 48.35 53.90 55.81 63.58 58.29 51.43 50.50 49.15 47.94 46.76 47.00 43.42 36.42 33.45 36.18 37.50 39.89 40.81 40.40 41.98 41.76 42.00 41.81 44.65 42.36 42.76 43.05
58.01 57.89 58.03 58.20 58.28 58.69 59.12 59.29 59.22 59.25 59.49 59.78 60.11 60.37 60.32 60.47 52.78 49.44 57.57 63.18 64.85 63.80 51.51 49.46 47.08 47.43 44.28 44.96 45.41 42.10 34.21 36.38 39.69 40.21 39.77 41.06 41.06 40.95 42.55 39.94 40.51 42.68 42.22 42.66 41.79
57.43 57.36 57.48 57.44 57.56 57.94 58.49 58.68 58.70 58.88 59.07 59.16 59.49 59.82 59.90 58.47 47.13 46.49 62.48 65.38 65.52 60.84 52.08 49.68 48.07 47.29 42.52 43.13 43.77 41.62 38.38 40.69 43.24 44.04 42.91 41.94 39.80 42.26 39.73 40.32 41.71 42.82 44.03 41.93 40.38
57.29 56.96 56.88 57.00 57.08 57.37 57.75 58.04 58.21 58.52 58.74 58.87 59.07 59.47 59.81 53.34 37.74 48.39 63.56 65.18 64.32 54.38 50.58 48.13 45.94 43.39 41.45 41.63 44.40 39.38 43.23 42.72 44.43 44.71 42.41 40.78 41.88 40.50 41.28 46.02 44.81 44.68 42.23 41.61 40.52
57.30 56.87 56.59 56.58 56.83 57.20 57.48 57.71 57.87 58.02 58.21 58.53 58.88 59.54 53.31 43.69 45.68 53.92 62.60 62.10 55.25 50.92 48.38 46.52 44.50 43.60 40.77 40.97 41.63 40.71 42.24 44.29 44.19 44.30 43.23 42.71 42.22 41.17 41.97 45.37 44.09 44.11 42.87 42.15 41.80
57.19 56.90 56.82 56.79 56.73 57.19 57.53 57.76 57.83 58.12 57.84 58.14 58.59 59.33 46.72 38.57 48.52 54.66 53.13 52.52 49.92 48.15 46.06 46.32 44.89 45.53 42.36 42.04 41.24 40.70 42.04 42.89 42.26 42.88 42.82 42.35 42.38 40.81 45.42 43.15 43.61 43.04 42.48 41.60 41.82
57.47 57.08 56.89 56.95 57.01 57.13 57.48 57.72 57.93 58.13 57.94 58.12 58.33 56.88 46.30 43.52 49.53 51.89 50.97 49.21 49.36 48.22 45.31 45.84 45.49 43.90 41.93 40.41 42.77 41.50 39.52 39.92 40.33 41.49 41.60 41.26 39.58 38.52 45.80 42.16 43.18 42.14 42.56 41.80 42.16
57.47 56.92 56.84 56.97 57.11 57.42 57.78 58.08 58.33 58.47 58.23 58.10 58.42 52.05 41.30 49.58 48.17 48.66 48.17 46.85 47.74 47.55 47.50 46.92 46.91 44.24 41.99 42.86 40.70 36.59 35.81 33.16 38.18 39.08 39.56 40.76 36.17 42.96 43.37 41.84 42.35 42.49 40.82 41.15 42.66
57.40 56.79 56.94 57.13 57.02 57.11 57.56 57.95 57.97 57.63 57.41 58.83 51.88 45.92 41.94 52.20 46.85 48.27 47.62 46.75 46.88 46.57 46.06 49.71 45.71 41.59 40.04 35.66 33.06 31.17 29.69 31.08 35.66 40.37 39.41 38.33 36.06 42.16 41.75 40.45 40.76 41.10 41.67 42.42 41.49
57.45 57.07 57.16 57.25 57.19 57.30 57.73 57.76 56.71 55.44 56.72 56.27 53.35 41.45 42.94 44.25 47.96 47.38 46.08 47.55 44.79 44.24 43.28 42.64 39.63 36.40 34.64 33.22 29.42 29.34 28.57 31.10 32.22 37.22 35.89 35.29 36.14 40.90 43.38 40.18 40.25 40.99 42.00 42.69 43.50
57.59 57.42 57.47 57.40 57.58 58.03 54.93 47.31 43.11 41.32 46.01 42.35 43.18 41.35 43.24 46.59 47.99 45.02 47.06 46.40 44.58 40.77 36.17 38.21 34.11 32.60 37.46 37.01 35.54 32.39 30.98 30.84 35.25 38.85 35.07 35.84 37.23 39.92 43.29 42.81 39.11 40.18 42.47 43.67 44.54
57.89 57.66 57.60 57.51 57.69 57.51 48.54 44.80 43.07 43.68 37.29 43.30 43.47 44.49 46.22 47.07 43.01 44.63 46.97 42.39 40.79 36.68 36.65 34.46 31.89 38.75 37.31 36.05 35.55 34.78 33.69 32.51 37.50 39.27 34.55 35.68 36.09 39.68 40.00 42.06 43.73 43.78 43.20 44.13 44.27
57.92 57.46 57.28 57.22 56.97 51.79 45.95 44.15 47.68 46.74 36.68 39.56 42.12 41.40 42.55 46.17 42.67 42.90 45.12 41.10 37.84 35.64 35.63 35.95 36.45 39.60 37.11 34.52 34.15 33.02 31.42 34.31 33.88 35.07 33.85 32.51 34.03 35.99 38.02 40.74 42.69 43.69 44.30 44.62 44.31
58.19 57.68 57.18 56.84 52.05 48.73 45.99 47.03 48.50 44.54 31.16 35.12 38.31 40.42 42.63 43.44 38.22 42.74 42.71 41.32 36.70 36.08 35.29 34.49 38.74 37.85 34.33 33.54 35.99 33.59 36.07 36.20 34.64 29.62 29.34 31.80 27.78 32.48 37.01 38.91 38.14 41.53 43.17 42.57 43.55
57.79 57.55 57.59 56.24 49.97 49.62 49.70 47.95 47.36 40.40 30.73 39.27 38.05 44.51 42.89 38.10 38.29 38.38 40.88 40.01 34.98 35.10 34.32 33.69 33.70 32.97 33.46 36.50 36.61 35.00 35.72 34.03 30.95 28.20 27.04 27.60 25.34 30.53 34.14 33.75 37.50 40.63 42.15 43.34 43.79
57.17 57.42 56.90 53.70 51.17 51.95 50.14 48.33 44.49 35.63 30.58 36.47 37.82 36.65 36.93 37.73 37.21 37.87 37.96 39.79 38.18 34.74 34.46 35.53 35.37 36.52 36.17 35.70 36.26 35.24 32.30 31.23 28.22 27.59 24.01 29.43 29.40 30.32 30.98 35.12 35.78 38.97 40.80 41.97 43.53
54.96 56.30 55.11 54.61 51.39 51.59 50.40 47.13 39.69 33.81 39.73 36.35 34.04 35.98 34.12 33.63 34.99 34.56 33.58 33.10 31.86 27.86 27.41 30.34 32.59 34.28 37.01 32.90 33.08 34.39 29.61 23.64 21.20 19.90 23.69 29.40 26.85 34.41 36.41 37.06 38.73 40.47 40.71 40.16 39.15
53.64 55.18 54.99 55.67 53.16 52.79 51.06 44.55 35.05 38.94 37.24 39.32 36.09 34.48 34.42 36.53 35.31 33.14 30.78 29.90 31.97 29.32 27.55 27.50 29.51 32.89 35.09 35.34 32.30 31.34 31.52 24.18 16.42 19.85 28.55 27.13 27.35 35.77 38.03 39.27 38.54 36.81 37.62 38.49 38.61
52.59 53.64 53.67 54.78 53.09 53.00 47.66 37.53 37.69 40.56 42.30 40.37 42.05 37.12 32.73 34.54 35.39 32.73 30.26 29.87 33.17 33.85 30.72 26.85 28.51 32.19 33.62 33.55 36.02 29.17 28.00 32.69 26.38 16.10 17.51 29.54 32.97 39.26 35.40 36.13 35.32 37.14 34.89 36.02 36.59
47.48 49.64 50.54 54.17 53.51 51.30 43.37 38.60 41.05 44.23 44.55 43.87 38.60 40.37 35.04 34.59 35.43 35.01 34.30 33.61 33.56 34.82 37.35 33.58 28.78 33.68 30.72 33.04 32.41 32.51 32.89 26.35 25.79 20.71 15.57 27.13 27.70 31.89 36.03 39.70 41.69 36.45 35.83 35.57 36.09
46.68 42.72 47.70 53.31 52.80 45.92 37.63 37.55 40.67 45.14 45.69 42.40 40.66 39.68 39.36 39.42 40.26 38.83 38.76 38.99 36.58 35.32 37.06 37.29 34.13 32.69 34.40 31.16 32.05 28.53 28.46 29.13 30.16 28.65 25.25 23.64 28.90 40.42 38.51 35.57 34.28 34.85 35.97 36.14 38.03
44.04 36.88 50.27 52.82 42.41 42.63 38.47 40.01 42.26 41.70 43.91 43.34 42.03 41.79 39.78 39.51 38.73 38.32 38.30 40.34 42.41 39.97 34.83 36.94 35.46 31.40 32.08 34.35 33.37 32.35 31.74 31.81 27.32 25.25 28.17 29.61 30.46 42.34 42.13 41.71 40.94 42.09 41.81 37.86 37.42
40.41 39.89 50.44 49.98 36.77 38.09 40.57 40.31 42.21 40.99 41.06 41.05 40.16 40.72 41.16 38.32 35.00 37.41 38.22 42.67 43.49 41.00 38.40 37.65 32.58 29.17 30.29 30.83 32.10 32.18 34.65 35.00 34.51 32.56 27.46 24.23 27.75 40.89 41.52 41.43 42.49 41.87 38.62 39.44 38.88
37.29 31.77 41.60 44.62 43.75 39.56 37.05 37.87 37.95 42.12 41.27 41.78 40.58 41.30 38.48 36.87 38.95 36.34 36.39 39.67 40.25 40.23 42.39 41.55 36.08 32.69 27.52 31.01 34.09 29.85 31.70 33.64 33.80 29.24 28.96 29.67 31.57 36.49 38.56 39.42 41.64 43.11 43.33 42.58 39.25
36.34 31.51 36.37 33.87 35.91 38.28 38.37 36.55 35.11 34.24 39.57 40.92 38.10 38.25 37.38 34.05 34.34 34.02 35.50 34.69 36.13 38.69 37.24 36.66 31.32 33.59 33.14 33.80 32.91 31.75 31.69 33.77 33.00 33.88 29.54 31.68 32.42 36.19 39.29 38.97 36.41 34.38 35.09 34.07 34.30
32.18 31.26 33.72 31.40 32.88 32.65 35.12 33.70 33.34 34.94 36.66 35.00 34.97 36.16 34.57 32.83 33.56 29.39 26.80 30.01 29.02 31.38 30.41 32.29 25.36 28.59 26.31 29.85 29.89 28.96 32.53 33.19 32.32 31.84 32.52 33.13 32.91 31.16 29.32 27.77 26.35 27.71 28.07 28.17 29.15
32.68 34.49 34.32 29.25 28.11 26.43 28.25 31.00 29.68 30.99 34.62 33.85 29.46 28.44 27.99 29.48 29.15 29.27 30.00 29.29 29.24 26.70 25.27 26.45 25.84 22.15 19.96 25.75 24.26 19.40 25.23 28.29 30.31 31.46 28.10 25.74 23.38 26.58 24.26 23.66 24.78 26.32 26.80 27.41 28.73

GFSSW_sfc_wetblb_024.txt.gz
Wetbulb
58.49 58.42 58.66 58.81 58.77 59.08 59.60 59.76 59.66 59.57 59.66 59.85 60.14 60.36 60.44 60.49 59.95 51.79 46.90 53.83 54.91 63.82 58.10 50.94 49.61 47.92 47.11 45.94 45.59 42.10 36.32 32.51 35.30 35.56 39.02 40.24 39.71 41.26 42.69 41.59 41.65 43.95 42.32 42.20 41.84
57.92 57.90 58.06 58.24 58.18 58.38 58.70 59.08 59.06 59.18 59.41 59.52 59.59 59.85 60.03 60.11 51.59 48.14 56.68 63.00 64.60 62.61 50.39 48.75 46.59 46.58 43.72 43.74 44.23 41.29 33.90 35.85 38.58 38.27 39.50 40.12 40.30 41.12 42.07 40.94 39.81 41.85 43.09 41.68 41.34
57.65 57.61 57.66 57.78 57.95 58.06 58.11 58.27 58.31 58.57 58.91 59.09 59.31 59.44 59.55 57.88 44.54 44.18 62.09 63.37 65.44 60.39 50.74 48.19 47.19 46.24 41.42 42.66 42.70 40.24 38.12 39.09 41.15 42.19 41.97 41.25 39.55 41.29 38.80 40.20 41.02 42.71 43.88 41.75 40.07
57.39 57.32 57.34 57.36 57.56 57.96 58.24 58.25 58.26 58.26 58.35 58.44 58.87 59.24 59.51 51.43 37.76 46.00 63.91 65.36 64.63 51.71 49.46 47.29 45.30 42.50 40.51 40.54 43.21 39.62 42.51 41.75 42.89 43.08 41.51 40.21 41.24 40.00 41.08 46.03 44.63 44.28 43.41 41.32 40.46
57.64 57.49 57.29 57.24 57.38 57.80 58.16 58.32 58.39 58.27 58.13 58.24 58.42 59.11 51.87 41.15 44.21 54.30 63.02 62.39 52.80 49.78 47.76 45.69 43.73 42.58 39.55 39.78 40.52 39.34 40.72 43.18 43.25 42.93 42.69 42.08 42.23 40.83 41.27 45.51 44.18 43.39 42.63 42.20 41.28
57.67 57.43 57.46 57.57 57.51 57.83 58.15 58.35 58.44 58.48 58.30 58.24 58.25 58.60 46.27 38.06 47.40 55.41 54.76 51.56 49.98 47.97 46.01 45.60 44.29 44.70 41.05 40.69 40.87 39.73 40.33 41.02 41.77 41.98 42.38 41.89 43.65 39.77 43.17 43.39 43.11 42.05 42.00 41.29 41.26
57.87 57.50 57.33 57.51 57.91 57.83 58.09 58.21 58.40 58.55 58.43 58.49 58.06 56.00 44.71 43.24 48.72 51.80 51.16 48.65 48.36 47.43 44.68 45.07 45.35 43.64 41.86 38.76 40.94 39.80 38.36 38.47 38.72 39.98 40.06 40.32 39.06 37.47 44.92 40.85 42.31 41.53 41.07 41.89 41.21
57.86 57.35 57.21 57.38 57.75 57.99 58.31 58.62 58.67 58.69 58.40 58.39 58.01 50.95 40.21 47.94 47.86 48.13 47.48 45.76 46.30 46.07 45.81 45.86 46.03 43.77 40.99 40.80 38.82 34.68 34.19 32.11 36.35 38.12 38.26 39.85 34.32 43.00 42.00 39.05 41.00 40.67 40.95 40.27 41.49
57.61 57.12 57.27 57.53 57.60 57.68 58.07 58.32 57.81 58.62 57.95 58.31 51.04 44.34 40.49 51.07 45.71 47.20 46.69 45.66 46.13 45.27 44.94 48.60 44.60 40.43 39.33 34.45 32.52 30.07 28.89 29.99 33.77 38.91 37.68 37.18 33.81 40.97 40.39 38.86 39.74 39.80 40.91 42.14 42.76
57.55 57.25 57.41 57.66 57.69 57.81 58.03 57.22 56.26 55.57 56.29 56.19 52.13 40.78 42.87 42.17 46.27 45.54 44.70 46.75 44.07 43.63 42.68 41.43 38.48 35.47 33.58 32.71 28.60 29.24 27.03 29.81 30.34 35.56 34.50 33.76 34.90 38.93 42.74 38.08 41.23 42.57 43.02 42.05 43.93
57.78 57.64 57.77 57.76 57.99 58.37 54.21 45.79 42.15 40.33 44.42 41.95 42.41 39.84 41.34 45.16 46.55 44.06 46.35 45.51 43.37 40.19 36.06 36.96 33.32 32.18 37.19 35.74 34.22 30.71 30.06 29.28 33.71 36.94 33.09 35.67 36.67 38.55 41.48 41.63 41.77 42.69 42.84 42.09 43.47
58.20 57.99 57.91 57.79 57.99 57.50 47.46 43.69 42.29 42.56 38.29 43.01 43.08 44.16 45.66 45.83 41.79 43.04 46.01 42.28 39.65 35.66 35.38 33.20 30.31 37.37 36.07 34.53 34.53 33.49 31.88 31.30 35.89 38.02 33.00 33.92 35.07 38.34 39.72 40.56 42.59 42.92 43.32 44.10 44.56
58.41 57.99 57.69 57.61 57.28 51.89 45.28 43.83 47.18 45.44 36.78 40.32 41.67 40.75 41.94 45.43 41.51 42.24 44.12 39.86 37.07 34.47 34.21 34.19 35.16 37.84 35.94 33.13 33.18 31.63 29.75 32.71 32.19 33.59 32.60 31.10 32.53 33.79 37.26 39.10 41.46 42.60 43.34 43.14 43.25
58.41 58.03 57.92 57.48 53.24 48.52 47.14 46.47 47.99 43.29 34.75 37.24 37.50 39.91 41.26 41.53 37.15 41.80 41.98 40.63 35.91 35.54 34.29 33.44 37.03 36.42 32.69 32.27 34.51 32.62 34.98 34.88 32.86 28.87 26.30 31.44 26.14 34.01 39.58 39.83 37.35 40.03 40.17 38.99 39.98
57.38 57.69 57.82 56.74 51.17 51.09 48.46 47.84 48.06 40.49 30.32 39.25 36.69 43.19 41.76 37.12 36.72 37.69 39.98 38.18 33.89 33.98 33.84 33.58 33.11 32.05 32.40 34.56 34.50 33.31 34.05 32.55 29.44 27.43 25.80 25.86 24.75 28.54 32.61 33.38 36.57 38.12 39.66 39.61 39.13
55.36 56.05 57.01 53.88 51.76 51.55 49.80 48.78 45.44 38.35 31.13 37.49 36.74 35.76 35.97 36.47 36.02 36.96 37.30 38.91 36.60 33.69 32.95 33.45 34.43 35.55 35.57 35.22 35.66 35.02 31.63 30.37 27.32 26.55 22.31 27.97 28.32 27.90 30.61 34.25 35.35 38.00 39.41 39.14 39.80
53.68 54.36 55.52 55.35 51.97 51.52 50.59 48.73 39.45 33.94 40.36 36.03 33.04 34.81 33.35 32.59 34.31 34.42 33.47 32.46 31.24 27.28 26.54 28.70 31.85 33.68 35.22 31.82 32.36 31.83 29.60 23.23 20.77 19.56 23.37 27.40 25.27 33.42 34.83 37.21 38.05 39.63 39.70 38.74 37.19
51.84 52.73 54.84 55.22 53.05 54.16 52.24 45.46 32.49 39.20 39.52 41.55 36.68 34.68 33.61 35.44 35.19 33.29 29.68 29.50 31.55 29.42 26.94 26.90 30.34 32.53 34.25 34.55 31.89 29.94 30.73 24.82 18.56 17.71 27.61 24.94 23.98 32.28 36.82 38.44 37.16 35.62 38.04 36.31 36.67
50.96 50.20 51.71 54.64 53.03 53.72 48.37 37.10 36.85 38.66 42.44 41.66 42.15 38.88 36.65 35.52 36.59 34.34 31.58 29.68 32.75 34.39 32.49 27.45 27.77 31.24 33.00 33.09 34.74 27.95 27.97 32.10 27.62 19.04 18.39 29.51 33.55 36.01 34.96 34.01 33.84 35.79 35.40 34.97 36.38
44.70 46.69 47.39 54.10 53.15 51.05 43.80 38.57 39.75 43.65 43.64 43.44 38.08 40.58 35.10 34.30 33.99 33.56 33.25 33.30 32.76 34.46 37.02 34.15 29.94 32.81 30.90 32.87 31.77 31.79 32.69 27.00 26.84 21.36 17.36 26.66 25.97 30.83 35.27 38.53 38.58 35.30 33.98 35.61 36.26
43.64 41.33 46.14 53.15 52.91 46.02 36.70 36.94 41.24 44.36 44.50 41.67 40.36 39.32 39.55 38.63 39.41 38.18 39.14 39.02 34.83 33.66 36.16 37.97 33.82 31.89 33.44 30.12 30.84 28.36 28.38 29.19 29.57 28.68 24.65 23.20 27.96 39.03 35.61 32.97 33.68 33.27 36.91 37.48 39.59
42.05 33.54 48.02 53.51 42.55 42.04 36.81 38.77 41.67 41.54 43.34 42.02 42.48 41.20 39.59 39.46 37.89 37.58 37.26 40.66 42.23 39.09 34.38 38.49 36.78 30.84 32.54 36.20 34.70 33.49 33.17 32.71 28.20 25.41 26.73 28.87 29.16 41.27 40.26 40.16 37.68 37.02 35.07 34.57 34.46
36.34 37.41 48.92 49.98 34.79 36.01 39.24 38.66 40.49 39.72 40.23 40.02 39.09 40.15 40.77 37.63 34.56 37.48 38.17 41.13 41.94 39.78 37.95 37.56 34.01 29.18 27.81 29.82 31.50 30.85 32.22 34.00 34.11 33.07 28.27 24.99 27.45 40.63 41.08 39.73 29.89 30.49 31.37 32.14 32.10
34.86 29.55 36.91 43.46 41.06 37.32 35.25 35.64 35.54 41.22 40.67 41.42 39.92 40.33 38.35 36.64 38.53 35.90 36.59 39.39 38.22 38.80 41.26 41.18 35.47 32.47 27.71 30.53 33.00 29.47 32.23 33.66 32.10 26.48 28.27 28.22 30.83 35.59 32.34 28.50 26.68 27.81 28.11 29.10 29.58
33.13 29.25 34.40 31.65 33.92 35.80 36.95 36.02 33.43 32.81 38.62 39.25 36.96 36.90 36.14 33.74 34.70 33.56 35.18 33.42 35.27 36.28 35.31 35.53 29.77 32.53 32.20 30.82 30.61 29.80 29.47 29.17 27.34 28.82 25.08 27.29 29.65 32.71 25.22 24.39 25.71 28.60 27.76 27.71 28.52
28.50 29.66 31.65 27.98 30.34 28.94 31.19 30.85 31.88 34.01 34.51 33.66 32.92 34.43 35.17 32.63 32.43 30.30 26.44 28.76 27.26 29.53 28.54 30.99 23.11 26.36 23.48 26.94 26.85 24.54 26.29 26.72 26.44 26.35 28.00 29.58 28.04 25.60 25.68 26.32 25.71 27.17 26.94 25.88 27.17
30.71 32.38 33.11 26.83 27.10 25.51 24.78 27.94 27.54 28.58 30.24 30.25 28.44 28.11 27.60 30.15 29.72 30.26 30.47 29.57 28.79 26.39 24.32 24.24 20.66 14.87 15.70 22.82 19.12 13.89 19.79 23.27 23.86 25.52 22.88 20.50 20.75 23.72 21.92 23.23 24.07 25.47 27.06 26.68 25.44

GFSSW_sfc_wetblb_030.txt.gz
Wetbulb
58.87 58.93 59.08 59.19 59.32 59.50 59.55 59.53 59.39 59.35 59.48 59.76 60.04 60.16 60.21 60.20 59.99 56.99 50.72 56.25 57.92 63.23 59.56 55.73 55.68 54.64 55.06 53.52 52.89 51.94 47.57 44.88 45.13 44.71 46.55 49.66 48.68 49.70 50.77 50.56 50.39 51.98 52.81 54.14 52.75
58.44 58.52 58.70 58.85 58.98 59.27 59.48 59.56 59.42 59.30 59.23 59.31 59.39 59.64 59.94 59.90 56.10 52.34 59.89 61.34 64.43 61.63 55.11 53.97 52.60 53.37 52.36 51.82 52.72 50.60 46.81 46.14 48.75 48.87 47.46 49.11 49.13 50.29 49.08 49.99 50.50 50.88 53.43 52.70 51.95
58.28 58.24 58.37 58.47 58.72 59.09 59.38 59.48 59.46 59.41 59.28 59.21 59.15 59.26 59.46 59.34 51.11 49.84 61.34 62.69 65.19 60.62 55.91 54.36 54.25 52.85 50.08 51.28 51.26 49.93 46.51 49.27 48.08 48.57 48.28 48.23 48.45 49.97 49.11 48.23 51.05 50.97 52.44 53.84 52.08
58.32 58.19 58.22 58.29 58.48 59.02 59.40 59.47 59.78 59.61 59.39 59.15 59.14 59.17 59.36 56.38 44.54 50.08 63.58 64.27 64.16 56.48 54.40 53.12 52.39 50.10 49.01 47.96 50.45 46.42 49.21 49.43 49.47 48.70 48.18 47.69 49.30 48.34 49.14 50.35 52.84 53.44 53.69 53.55 52.00
58.37 58.23 58.23 58.24 58.40 58.91 59.42 59.63 59.92 60.04 59.63 59.25 59.04 58.98 55.95 48.32 49.31 59.91 64.13 64.30 56.77 54.27 53.13 52.02 50.47 50.01 47.44 48.18 47.84 46.56 48.67 49.26 49.88 48.76 48.57 49.28 48.27 48.79 49.18 51.79 52.94 52.98 51.60 51.48 52.45
58.24 58.10 58.09 58.16 58.55 58.95 59.31 59.60 59.83 59.92 59.55 59.24 59.00 58.50 51.22 43.40 53.20 61.36 61.03 55.16 55.01 54.00 52.47 52.45 51.10 51.45 48.38 47.22 46.86 47.52 47.31 47.81 48.21 47.94 48.26 46.59 47.79 47.81 48.97 51.60 50.94 50.87 50.77 51.62 51.57
58.34 57.96 57.78 57.96 58.57 59.00 59.26 59.49 59.55 59.55 58.99 59.02 59.05 56.56 48.64 48.48 54.70 59.00 56.09 55.22 54.00 53.74 51.09 51.39 51.80 50.50 49.45 46.73 48.04 46.59 44.22 46.51 46.81 46.42 45.99 46.92 44.19 44.92 49.72 50.31 48.95 49.67 50.56 50.59 50.70
57.97 57.53 57.52 57.85 58.35 58.87 59.25 59.57 59.21 58.66 59.18 58.19 58.98 55.39 46.82 50.87 55.28 54.07 53.25 51.15 52.69 52.30 51.60 51.68 51.94 50.04 48.30 48.14 45.59 43.40 42.78 40.70 45.79 43.80 45.07 46.09 41.31 47.33 49.71 47.53 47.72 49.10 50.03 50.32 51.13
57.62 57.33 57.66 58.02 58.19 58.44 58.93 58.96 57.27 59.15 58.90 58.75 54.77 49.56 46.31 52.75 49.69 51.28 52.17 49.93 50.64 50.71 51.26 50.45 51.23 47.80 46.79 43.86 41.99 42.87 38.94 40.88 41.81 45.01 43.72 44.43 42.34 46.82 48.17 46.82 46.64 47.90 48.72 49.30 50.08
57.72 57.62 57.96 58.23 58.30 58.54 58.64 55.56 56.41 56.99 57.75 57.23 53.49 45.87 48.23 46.30 49.62 49.11 50.48 50.84 48.76 49.58 48.44 48.17 47.18 44.48 43.47 41.97 36.89 40.41 39.08 39.99 39.06 44.06 42.85 41.61 41.66 44.79 46.66 46.38 45.98 46.88 47.88 48.92 49.11
58.23 58.24 58.43 58.44 58.66 59.20 55.22 53.06 53.72 51.04 50.55 49.55 49.67 46.25 46.62 49.01 50.16 48.03 49.31 48.74 48.51 47.04 43.38 45.00 42.06 39.36 42.90 43.60 43.60 41.11 39.53 39.07 41.95 44.22 41.34 41.13 42.08 43.74 45.32 45.58 46.02 46.96 47.95 48.83 49.12
58.82 58.88 58.84 58.75 58.85 57.55 53.74 50.42 47.95 47.96 45.58 49.67 47.94 47.17 48.35 49.74 46.36 46.47 49.42 45.97 44.80 42.32 42.22 40.81 38.70 43.99 44.05 41.78 40.31 40.32 38.88 38.95 42.29 43.55 40.13 41.22 40.43 43.11 44.89 45.35 46.28 46.44 47.69 48.52 48.69
58.45 58.31 58.40 58.60 58.41 56.65 51.64 49.76 51.40 50.41 45.31 47.47 46.19 45.00 45.91 48.27 45.76 46.28 47.44 45.37 42.96 39.96 40.32 41.01 43.50 42.88 41.09 40.61 38.77 40.26 38.03 39.02 39.02 41.17 41.36 39.26 39.96 41.36 45.17 44.96 46.46 46.78 47.34 46.91 46.50
57.93 57.78 57.99 57.92 56.14 54.85 51.47 50.48 51.60 49.93 43.75 44.45 42.58 43.95 44.89 46.03 42.35 45.37 46.40 44.50 42.39 40.40 40.92 40.57 42.56 39.94 38.42 38.32 40.40 37.03 42.66 39.71 37.81 36.37 34.20 39.34 33.36 41.63 44.50 45.28 46.00 46.03 45.54 45.92 47.19
56.02 56.92 57.75 56.74 57.27 55.38 51.48 51.12 50.80 46.53 34.05 43.09 40.97 47.60 45.79 42.31 42.32 42.42 45.69 44.98 40.61 40.40 40.04 40.64 38.48 37.35 37.65 39.55 40.45 38.69 39.59 37.89 36.85 36.15 34.65 36.66 33.52 41.40 41.99 40.76 43.84 44.16 44.89 45.03 44.94
53.65 54.75 56.43 56.49 56.93 53.97 52.19 50.82 50.22 42.46 33.57 41.60 41.50 41.00 41.22 41.72 40.70 42.73 43.15 45.26 42.83 39.64 39.62 40.12 40.64 40.29 40.88 39.74 39.87 39.71 38.95 38.61 36.00 35.67 31.21 38.32 35.55 37.93 40.41 41.45 42.74 43.13 42.80 42.38 42.20
51.77 52.26 55.75 56.64 54.32 54.00 54.51 54.44 41.73 35.79 45.40 40.44 38.93 40.12 39.72 39.02 38.80 40.12 39.89 40.05 40.18 37.15 37.89 41.39 42.30 40.36 39.82 37.95 38.28 38.55 36.19 31.46 32.11 31.13 32.00 35.02 34.23 37.96 42.82 43.35 41.34 39.95 39.81 39.95 40.14
50.51 51.76 53.35 56.57 54.86 54.55 54.02 46.92 34.36 39.64 41.54 45.61 42.91 40.73 42.10 41.79 42.01 40.65 41.82 39.59 42.63 39.26 36.59 34.85 34.03 37.53 39.54 39.14 39.02 36.52 36.73 31.27 26.52 28.92 32.95 37.88 32.79 39.47 43.46 40.62 40.05 39.97 39.83 39.45 38.57
49.56 52.51 51.68 54.00 54.44 54.98 49.55 37.11 37.84 40.58 44.08 42.84 42.68 40.90 40.97 41.13 41.76 41.52 40.61 41.70 41.91 41.07 35.64 34.94 34.92 38.96 37.07 38.71 39.37 35.17 32.84 39.16 31.36 32.66 28.18 33.93 39.08 41.10 39.81 38.25 38.26 38.00 38.62 37.14 36.91
47.08 47.26 47.96 53.82 54.96 52.73 43.00 36.67 39.55 44.67 45.24 44.58 38.72 41.56 37.46 39.80 38.16 37.10 37.90 38.80 37.62 37.67 39.77 37.45 32.88 39.88 38.74 38.01 38.51 37.97 39.89 32.21 32.52 24.69 23.83 30.91 33.79 35.23 36.55 35.21 36.49 36.11 35.21 35.24 35.81
46.25 40.93 46.43 54.29 54.08 46.17 35.82 36.27 39.46 44.15 44.98 41.81 39.50 38.95 39.23 38.50 40.09 38.17 38.49 41.59 43.39 41.37 40.14 38.51 36.14 36.86 37.83 35.96 36.17 34.20 32.15 32.89 32.41 31.62 26.72 25.51 31.43 39.98 36.40 34.59 34.61 33.94 34.12 34.17 34.42
44.14 34.58 48.52 53.70 41.08 42.11 37.06 38.62 41.16 40.85 43.51 42.56 41.89 41.01 39.11 39.40 37.35 36.85 36.45 39.96 44.10 39.61 37.07 39.50 37.03 31.83 34.53 41.09 40.25 37.38 36.14 35.62 29.28 27.82 30.40 29.79 30.36 41.52 36.02 33.57 32.93 31.36 31.57 32.77 33.54
40.12 39.51 47.39 50.34 34.52 36.27 39.60 39.21 40.79 39.68 39.88 39.70 38.87 40.51 41.05 37.45 33.63 36.98 38.06 41.40 42.28 41.36 38.79 39.15 35.37 29.99 32.25 35.73 36.17 34.07 36.71 35.92 36.28 34.20 29.63 27.35 30.33 36.80 34.34 30.88 30.55 29.66 29.96 31.01 31.78
38.15 32.20 39.06 44.17 43.11 37.54 35.73 35.14 35.23 39.93 39.51 40.74 39.01 40.90 38.33 36.00 37.99 35.24 36.33 40.13 41.29 39.73 38.59 39.79 33.89 31.43 26.91 29.98 33.66 32.25 33.32 32.76 31.38 27.46 28.59 29.34 30.15 34.16 36.07 35.45 30.92 29.91 29.62 30.50 30.77
36.46 31.91 36.14 34.05 35.76 37.57 37.18 34.89 33.11 33.17 37.82 39.07 36.84 37.14 35.16 31.93 32.56 32.63 35.29 34.87 36.54 34.45 36.06 35.61 29.97 31.67 32.09 33.16 32.56 30.88 29.59 29.30 27.10 28.18 24.31 27.76 27.29 31.12 33.47 27.85 27.14 27.65 28.54 29.70 29.95
32.78 32.43 34.14 32.04 32.13 33.61 35.21 33.30 32.11 32.78 33.87 32.75 32.60 34.61 31.96 31.10 32.56 29.97 31.75 32.30 31.42 31.86 30.66 30.85 27.21 27.88 24.21 28.60 28.52 25.57 26.22 26.83 26.77 26.84 26.18 26.84 26.72 33.31 28.36 28.87 28.37 28.33 27.75 27.73 28.49
35.08 36.14 34.01 28.88 29.51 30.09 29.91 30.70 30.05 32.19 29.76 31.41 30.47 29.95 28.10 31.01 32.65 32.46 32.34 31.35 31.49 28.67 27.15 26.50 26.05 24.25 20.20 26.41 23.03 18.30 23.26 26.76 28.25 29.77 28.67 23.53 26.33 25.70 24.78 27.14 28.16 28.24 28.48 28.17 28.69

GFSSW_sfc_wetblb_033.txt.gz
Wetbulb
58.91 59.02 59.17 59.29 59.46 59.76 59.92 59.94 59.83 59.67 59.60 59.76 59.86 59.93 60.14 60.32 60.26 59.40 53.48 58.52 59.65 63.76 61.26 57.30 56.58 56.31 56.64 55.21 55.36 55.05 48.09 45.83 47.21 46.85 47.44 51.09 49.43 52.51 53.41 51.62 52.73 53.52 53.45 55.18 56.08
58.47 58.59 58.82 59.04 59.13 59.46 59.73 59.86 59.84 59.71 59.71 59.67 59.71 59.70 59.81 59.70 57.45 54.61 60.28 61.95 65.15 62.53 56.94 55.18 53.90 54.58 53.54 53.48 54.14 51.22 47.96 47.50 50.25 50.00 48.67 49.84 50.06 50.67 50.47 50.61 50.95 52.48 54.82 55.98 55.21
58.31 58.42 58.50 58.63 58.86 59.32 59.70 59.84 59.85 59.92 59.82 59.70 59.54 59.56 59.57 59.52 54.25 51.91 62.19 63.74 65.09 61.56 57.55 56.83 55.32 53.97 51.51 53.13 52.59 51.60 47.29 49.84 50.19 51.16 50.77 49.51 49.48 51.28 49.38 48.40 50.62 50.59 52.77 54.48 55.16
58.22 58.28 58.37 58.52 58.73 59.26 59.73 59.87 60.13 60.23 60.04 59.76 59.53 59.42 59.40 58.30 45.77 53.95 63.58 63.95 64.51 59.11 56.08 54.33 53.29 50.94 49.69 49.00 51.80 47.96 50.30 50.56 51.10 51.50 49.85 48.97 50.77 49.23 49.91 50.20 52.77 53.24 53.71 53.85 53.84
58.47 58.28 58.30 58.36 58.62 59.16 59.71 60.05 60.22 60.39 60.07 59.74 59.56 59.22 58.14 50.64 50.46 61.73 63.48 64.23 59.45 56.09 54.06 52.88 51.28 51.00 48.04 48.94 49.95 48.47 49.19 50.07 51.02 50.94 50.66 50.76 48.96 49.02 49.43 52.13 53.31 53.34 53.32 53.05 53.47
58.56 58.32 58.22 58.31 58.73 59.19 59.68 60.05 60.17 60.19 59.63 59.45 59.44 58.60 54.52 47.84 55.22 61.30 61.89 59.59 56.18 55.04 53.94 53.82 51.65 52.53 49.68 48.60 47.84 49.40 48.65 48.75 49.37 49.17 49.59 47.69 48.27 49.08 49.59 51.99 51.58 51.62 51.75 52.33 52.84
58.50 58.17 57.93 58.17 58.85 59.39 59.61 59.83 59.85 59.52 59.03 59.35 59.26 57.75 51.14 51.67 56.75 60.24 59.35 57.04 56.35 55.44 53.26 54.72 54.07 51.31 50.92 48.23 50.71 48.54 44.71 46.88 47.73 48.75 48.10 48.45 45.19 46.02 50.55 51.40 50.19 50.28 51.07 51.85 52.43
58.12 57.78 57.72 58.05 58.59 59.12 59.53 59.67 59.34 59.04 58.85 58.09 59.30 56.45 49.13 52.36 56.62 55.90 55.85 53.78 55.43 55.29 54.20 53.86 54.13 51.76 49.72 50.95 47.93 44.97 45.98 41.62 47.34 46.73 47.18 46.67 41.77 47.97 50.50 49.08 48.63 49.25 50.19 51.30 51.95
57.91 57.65 57.88 58.26 58.48 58.72 59.23 58.90 57.33 58.95 58.93 58.80 56.68 53.65 48.10 53.22 50.92 52.89 54.31 51.45 53.12 53.02 52.82 52.06 52.57 49.60 49.52 44.88 43.13 45.12 40.28 42.57 44.64 48.51 45.98 44.97 42.73 47.72 49.61 48.61 48.19 49.38 50.09 50.49 50.96
58.08 58.01 58.22 58.51 58.61 58.90 59.06 55.72 57.50 57.82 58.46 57.87 54.46 48.03 49.81 47.88 51.03 51.02 52.56 52.78 50.39 50.97 49.43 49.21 48.65 45.48 45.57 43.50 37.52 41.78 42.58 43.52 42.86 46.24 46.34 44.50 44.15 47.13 49.03 48.85 48.74 49.28 49.43 49.82 50.67
58.53 58.62 58.84 58.89 59.11 59.69 58.35 56.98 55.45 53.51 54.28 52.95 53.64 51.22 53.90 51.36 51.88 49.90 51.02 50.20 50.42 48.83 44.42 47.09 43.08 40.75 44.26 46.14 45.22 43.82 42.02 41.22 43.92 46.47 44.93 44.06 44.03 45.55 47.73 47.80 48.07 48.93 49.80 49.73 50.05
59.09 59.16 59.28 59.16 59.42 59.27 57.21 55.07 51.55 51.04 49.72 55.51 53.90 52.10 53.19 51.04 48.24 48.37 50.82 47.04 46.00 43.34 45.84 42.62 40.24 45.54 46.62 45.90 42.58 42.24 40.64 40.66 44.16 46.54 44.88 43.28 42.21 44.49 46.19 47.58 48.64 48.80 48.84 48.97 49.07
58.97 58.66 58.52 58.68 58.89 59.13 55.95 52.97 53.91 52.73 48.81 51.39 50.28 49.29 49.07 49.83 49.49 50.25 48.92 48.12 45.18 44.08 43.27 41.79 45.34 47.45 43.65 43.23 41.48 42.14 40.89 41.12 40.69 43.32 43.75 42.14 40.58 43.92 47.51 49.70 48.61 47.79 48.19 48.26 46.97
58.38 58.09 58.32 58.19 56.84 59.23 55.20 53.48 54.07 53.19 45.11 46.65 45.23 45.66 46.16 48.07 44.23 47.28 48.39 46.88 44.91 42.74 44.35 43.80 44.37 41.83 41.80 40.57 42.26 38.23 43.74 41.78 39.82 38.20 34.97 41.44 33.18 42.01 46.07 47.30 44.97 45.77 44.98 45.26 44.91
57.08 57.46 58.22 56.48 59.80 57.40 54.06 54.43 54.12 50.49 34.99 45.04 43.02 49.64 47.39 44.06 44.83 44.45 48.09 46.46 42.51 42.70 42.11 41.23 40.61 39.83 39.29 40.90 43.17 39.72 42.22 40.16 39.30 37.36 37.37 38.42 35.47 41.21 46.34 42.82 42.63 43.89 43.62 43.19 42.78
53.94 55.60 56.71 57.95 58.88 56.59 55.75 54.74 53.32 43.20 34.02 43.73 43.76 42.90 42.39 43.13 42.82 44.89 44.95 47.10 46.26 42.16 42.95 42.28 44.16 42.43 42.83 43.23 42.58 42.60 40.15 40.68 40.87 38.22 32.91 39.65 38.94 39.61 41.37 41.69 41.63 41.90 41.62 41.69 41.81
51.67 52.32 56.02 58.97 55.54 57.75 57.73 56.08 43.08 36.44 46.81 43.20 41.31 42.46 43.23 41.47 41.15 42.09 42.39 41.82 42.20 39.20 40.44 42.90 42.84 47.46 43.39 40.63 42.37 39.45 37.47 33.56 32.70 32.45 32.35 38.52 37.39 39.78 43.49 42.46 42.53 40.46 40.24 40.68 41.06
50.00 51.71 53.94 57.94 58.83 57.78 57.00 48.47 35.07 40.74 42.60 47.15 44.95 43.75 42.69 44.67 45.16 43.44 42.89 42.57 46.37 43.18 40.11 36.77 35.08 42.73 42.04 41.17 39.88 38.98 39.40 33.68 27.24 28.78 32.84 38.24 32.91 39.99 42.92 41.79 41.91 41.79 40.98 40.26 39.45
50.04 53.52 52.68 54.87 57.74 57.38 51.27 39.55 38.64 41.75 45.19 43.55 44.51 41.55 42.30 44.79 43.57 43.95 43.75 42.66 43.69 44.30 37.91 36.52 36.26 41.60 40.38 41.19 40.73 39.09 35.16 40.65 34.14 33.52 29.85 34.20 38.94 44.17 40.53 39.69 40.46 40.11 39.72 38.46 38.36
50.01 49.43 49.71 54.82 57.46 54.33 44.99 38.78 41.54 45.17 45.66 45.46 39.19 42.01 37.92 41.12 40.24 40.09 40.42 42.39 39.97 40.40 42.58 39.29 33.44 41.91 41.59 39.81 40.22 36.94 38.74 32.55 32.71 25.20 24.25 31.07 33.82 35.95 37.95 38.05 39.06 37.80 37.12 36.98 37.59
48.07 43.11 49.25 54.92 55.93 46.75 37.44 38.07 40.34 44.34 44.86 42.55 40.35 39.11 39.27 38.28 39.90 38.71 39.25 42.53 44.55 42.11 42.61 41.78 36.89 37.07 39.92 37.36 36.83 36.53 33.39 33.50 33.98 32.89 26.70 25.77 31.13 42.30 38.13 39.12 37.32 35.72 35.60 35.65 35.93
45.15 38.05 50.68 54.87 41.60 42.47 37.85 39.77 41.20 41.79 44.46 42.36 42.82 41.06 39.14 39.29 37.74 37.80 37.42 40.60 45.21 42.24 37.93 41.08 37.72 32.10 34.52 40.83 42.39 40.35 37.20 36.80 29.84 28.15 30.84 29.89 30.79 44.41 37.82 37.47 35.53 34.57 34.61 34.44 34.53
40.59 41.51 49.31 50.32 36.38 38.24 40.54 39.81 41.32 40.30 40.82 40.77 40.17 41.90 41.99 38.22 34.26 37.08 38.25 42.75 43.43 41.70 39.23 39.91 35.00 28.60 30.08 34.85 37.78 35.28 36.08 35.79 35.59 33.51 29.51 27.62 30.51 39.77 38.38 34.75 33.02 32.83 32.19 32.43 32.58
40.61 34.64 41.05 43.57 44.42 39.02 37.37 36.92 37.05 42.04 40.71 41.42 39.79 40.69 38.67 36.25 38.47 35.04 35.90 40.74 42.00 40.96 39.13 40.39 34.77 31.38 26.65 29.42 34.55 31.45 33.13 34.86 32.81 27.92 28.16 28.31 30.22 35.24 37.30 37.23 37.25 34.00 32.67 32.04 32.25
39.03 35.48 39.49 34.73 36.80 38.11 38.75 36.72 34.66 34.72 39.19 39.97 36.98 37.10 35.74 31.93 33.59 33.23 36.28 37.33 38.35 36.01 37.93 37.04 29.35 31.17 32.07 33.02 32.47 30.51 29.58 30.83 29.17 30.50 25.99 28.69 29.18 33.05 35.24 34.30 31.19 30.59 30.46 30.65 31.41
35.16 34.63 37.13 36.99 38.61 37.21 36.57 34.88 34.08 35.07 35.51 34.08 34.64 36.89 36.51 33.30 34.75 31.54 33.48 33.42 32.40 34.86 33.03 33.04 26.46 28.84 25.04 29.24 29.19 26.95 29.45 30.04 29.87 29.59 28.65 29.10 28.85 36.29 33.57 32.20 31.84 31.58 30.25 29.49 30.18
38.37 38.93 36.92 33.61 33.80 34.08 34.86 34.93 34.32 36.46 35.04 35.18 34.86 33.70 31.74 34.27 35.80 34.85 35.08 34.36 33.92 30.93 29.86 28.48 26.39 24.39 19.83 26.11 25.19 19.70 24.09 26.68 27.95 30.02 29.73 25.41 28.46 28.49 28.06 28.45 29.17 29.41 29.73 29.60 30.12